sat.trackr.live / text

‹ back to catalog

STARLINK-11225 [DTC]

NORAD 60912 · 2024-154K

PAYLOAD ACTIVE UNKNOWN

§ Identity

Operator
Country
US
Launch date
2024-08-31
Launch site
AFETR
Launch vehicle
Mass (kg)
RCS (m²)

Purposes: comms

External: N2YO · Heavens-Above · Gunter

§ Orbital elements

Epoch: 2026-05-25T03:34:46.655904Z

Period
91.74 min
Inclination
53.1571°
Eccentricity
0.0001169
Mean motion
15.69705028 rev/d
Perigee alt
359.0 km
Apogee alt
360.5 km
Semi-major
6,737.9 km
B*
4.4132e-5
RAAN
114.3108°
Arg perigee
82.9643°
Mean anomaly
277.1507°
Rev number
10,051

§ Raw data

STARLINK-11225 [DTC]1 60912U 24154K   26145.14915111  .00004760  00000+0  44132-4 0  99992 60912  53.1571 114.3108 0001169  82.9643 277.1507 15.69705028100518

JSON: /api/v1/satellites/60912 · /tle

For live sub-satellite position, see the globe view (requires WebGL).

§ Visibility from observer

Set your observer location to see the next 7 days of passes ≥ 10°. The values pass through the URL so the page stays shareable.

No JS? Fill the form by hand. The geolocation button needs JavaScript.